GPS BIIR-4 (PRN 20)

Last updated on Aug. 13, 2020, 5:30 a.m. UTC

1 26360U 00025A   20225.62102906 -.00000040  00000-0  00000+0 0  9995
2 26360  53.5618 106.8336 0053522 156.2202  69.5957  2.00564863148445
UTC
Height (km)
Latitude
Longitude
Inclination
Orbital Period
UTC large
Height (km)
Speed (km/s)
/
Latitude / Longitude
Inclination (degrees)
Orbital Period (minutes)
Azimuth
Elevation
Range (km)
Doppler Factor
iOS Compass Heading
iOS Angle

Next 30 passes for location: Hong Kong

Rise time Rise Azimuth (degrees) Set time Set Azimuth (degrees) Duration Max altitude (degrees)

No matching passes for this satellites